New Orleans Lakefront, LA

3:33 PM CDT on April 25, 2018 (GMT -0500)
Lakefront

Weather History for KNEW - March, 2013

Change the Weather History Date:

Tuesday, March 5, 2013

  Actual Average Record
Temperature  
Mean Temperature 65 °F 60 °F  
Max Temperature 76 °F 69 °F 83 °F (1955)
Min Temperature 53 °F 52 °F 29 °F (2002)
Degree Days  
Heating Degree Days 0 6  
Month to date heating degree days 63 30  
Since 1 July heating degree days 952 1139  
Cooling Degree Days 0 1  
Month to date cooling degree days 0 5  
Year to date cooling degree days 32 42  
Growing Degree Days 17 (Base 50)    
Moisture  
Dew Point 53 °F    
Average Humidity 63    
Maximum Humidity 90    
Minimum Humidity 36    
Precipitation  
Precipitation T in 0.15 in 7.87 in (1948)
Month to date precipitation T 0.77  
Year to date precipitation 13.80 11.22  
Snow  
Snow 0.00 in - - ()
Month to date snowfall 0.0  
Since 1 July snowfall 0.0  
Snow Depth 0.00 in    
Sea Level Pressure  
Sea Level Pressure 30.03 in    
Wind  
Wind Speed 12 mph (WSW)    
Max Wind Speed 26 mph    
Max Gust Speed 32 mph    
Visibility 10 miles    
Events      
T = Trace of Precipitation, MM = Missing Value Source: NWS Daily Summary

Daily Weather History Graph

Daily Weather History Graph

Search for Another Location

Airport or City:

Astronomy

Mar. 05, 2013 Rise Set
Actual Time 6:21 AM CST 6:02 PM CST
Civil Twilight 5:57 AM CST 6:26 PM CST
Nautical Twilight 5:29 AM CST 6:53 PM CST
Astronomical Twilight 5:01 AM CST 7:21 PM CST
Moon 1:14 AM CST (3/5) 11:59 AM CST (3/5)
Length of Visible Light 12h 28m
Length of Day
11h 40m
Last Quarter, 40% of the Moon is Illuminated
Mar 5
Last Quarter
Mar 11
New
Mar 19
First Quarter
Mar 27
Full
Apr 2
Last Quarter

Hourly Weather History & Observations

Time (CST) Temp. Dew Point Humidity Pressure Visibility Wind Dir Wind Speed Gust Speed Precip Events Conditions
1:53 AM 64.4 °F 55.4 °F 73% 29.97 in 10.0 mi South 11.5 mph - N/A   Overcast
2:53 AM 66.0 °F 55.0 °F 68% 29.95 in 10.0 mi South 11.5 mph - N/A   Overcast
3:53 AM 66.0 °F 55.0 °F 68% 29.94 in 10.0 mi South 10.4 mph - N/A   Partly Cloudy
4:53 AM 66.0 °F 55.9 °F 70% 29.94 in 10.0 mi South 13.8 mph - N/A   Mostly Cloudy
5:53 AM 66.0 °F 55.9 °F 70% 29.94 in 10.0 mi South 13.8 mph - N/A   Partly Cloudy
6:53 AM 66.2 °F 57.2 °F 73% 29.99 in 10.0 mi South 10.4 mph - N/A   Mostly Cloudy
7:53 AM 66.0 °F 57.0 °F 73% 30.04 in 10.0 mi SW 11.5 mph - N/A   Overcast
8:53 AM 69.1 °F 57.9 °F 68% 30.03 in 10.0 mi SSW 12.7 mph - N/A   Overcast
9:53 AM 71.1 °F 59.0 °F 66% 30.03 in 10.0 mi SW 19.6 mph 27.6 mph N/A   Overcast
10:53 AM 75.0 °F 57.9 °F 55% 30.01 in 10.0 mi WSW 20.7 mph 24.2 mph N/A   Overcast
11:53 AM 72.0 °F 55.9 °F 57% 30.01 in 10.0 mi West 24.2 mph - N/A   Overcast
12:53 PM 70.0 °F 57.0 °F 63% 29.99 in 10.0 mi West 18.4 mph - N/A   Overcast
1:53 PM 68.0 °F 57.9 °F 70% 29.98 in 10.0 mi West 13.8 mph - 0.00 in   Overcast
2:53 PM 69.1 °F 57.0 °F 65% 29.98 in 10.0 mi West 11.5 mph - N/A   Clear
3:53 PM 69.1 °F 55.9 °F 63% 29.98 in 10.0 mi West 15.0 mph - N/A   Clear
4:53 PM 66.9 °F 54.0 °F 63% 30.00 in 10.0 mi WNW 12.7 mph - N/A   Clear
5:53 PM 64.9 °F 51.1 °F 61% 30.03 in 10.0 mi NW 15.0 mph - N/A   Clear
6:53 PM 64.9 °F 48.9 °F 56% 30.06 in 10.0 mi NW 16.1 mph - N/A   Clear
7:53 PM 63.0 °F 48.0 °F 58% 30.09 in 10.0 mi NNW 12.7 mph - N/A   Clear
8:53 PM 62.1 °F 46.0 °F 56% 30.13 in 10.0 mi NNW 16.1 mph - N/A   Clear
9:53 PM 61.0 °F 45.0 °F 56% 30.16 in 10.0 mi NNW 11.5 mph - N/A   Clear
10:53 PM 59.0 °F 46.0 °F 62% 30.17 in 10.0 mi North 11.5 mph - N/A   Clear
11:53 PM 59.0 °F 41.0 °F 51% 30.19 in 10.0 mi North 15.0 mph - N/A   Clear